Location: Dötzum
(52.0808°N, 9.8063°E)
Time: 07:22:44
(UTC+00:00)

Cosmos 2251 Rocket - Visible Passes

Search period start: 27 September 2022 00:00
Search period end: 07 October 2022 00:00
Orbit: 765 x 791 km, 74.0° (Epoch: 26 September)

Date Brightness Start Highest point End Pass type
(mag) Time Alt. Az. Time Alt. Az. Time Alt. Az.
27 Sep 5.6 00:56:17 10° N 01:00:33 24° NE 01:04:45 10° E visible
27 Sep 3.3 02:38:08 10° NNW 02:43:26 77° WSW 02:48:40 10° SSE visible
27 Sep 5.1 04:22:22 10° WNW 04:24:48 13° W 04:27:12 10° WSW visible
27 Sep 6.2 19:07:25 10° W 19:11:11 19° NW 19:14:58 10° N visible
28 Sep 6.0 00:22:26 10° N 00:26:04 18° NE 00:29:39 10° E visible
28 Sep 3.6 02:04:01 10° NNW 02:09:19 74° ENE 02:10:45 48° SE visible
28 Sep 4.7 03:47:15 10° NW 03:50:52 20° W 03:50:52 20° W visible
28 Sep 5.8 18:32:21 10° WSW 18:36:43 25° NW 18:41:05 10° N visible
28 Sep 6.3 23:48:44 10° N 23:51:30 14° NE 23:53:59 11° ENE visible
29 Sep 4.4 01:29:57 10° NNW 01:34:18 47° NNE 01:34:18 47° NNE visible
29 Sep 5.0 03:12:37 10° NW 03:14:37 20° WNW 03:14:37 20° WNW visible
29 Sep 5.4 17:57:30 10° WSW 18:02:19 33° NW 18:07:09 10° NNE visible
29 Sep 6.6 19:45:25 10° NW 19:46:22 10° NNW 19:47:21 10° NNW visible
29 Sep 6.4 23:15:21 10° NNE 23:16:51 11° NNE 23:18:22 10° NE visible
30 Sep 5.2 00:55:56 10° NNW 00:59:16 30° NNE 00:59:16 30° NNE visible
30 Sep 5.3 02:38:14 10° NW 02:39:38 18° NW 02:39:38 18° NW visible
30 Sep 4.8 17:22:53 10° SW 17:28:01 46° WNW 17:33:09 10° NNE visible
30 Sep 6.4 19:09:13 10° WNW 19:11:44 13° NNW 19:14:14 10° N visible
01 Oct 5.7 00:21:59 10° N 00:24:42 22° NNE 00:24:42 22° NNE visible
01 Oct 5.6 02:03:58 10° NNW 02:05:05 17° NNW 02:05:05 17° NNW visible
01 Oct 6.2 18:33:43 10° W 18:37:09 17° NW 18:40:34 10° N visible
01 Oct 6.0 23:48:05 10° N 23:50:22 18° NNE 23:50:22 18° NNE visible
02 Oct 5.8 01:29:47 10° NNW 01:30:47 16° NNW 01:30:47 16° NNW visible
02 Oct 6.0 17:58:32 10° W 18:02:39 22° NW 18:06:44 10° N visible
02 Oct 6.2 23:14:18 10° N 23:16:12 15° NNE 23:16:12 15° NNE visible
03 Oct 5.9 00:55:41 10° NNW 00:56:38 15° NNW 00:56:38 15° NNW visible
03 Oct 5.5 17:23:35 10° WSW 17:28:12 29° NW 17:32:50 10° N visible
03 Oct 6.3 22:40:43 10° N 22:42:09 12° NNE 22:42:09 12° NNE visible
04 Oct 6.1 00:21:39 10° NNW 00:22:35 15° NNW 00:22:35 15° NNW visible
04 Oct 6.3 18:35:48 10° NW 18:37:44 12° NNW 18:39:39 10° N visible
04 Oct 6.2 23:47:40 10° NNW 23:48:36 14° N 23:48:36 14° N visible
05 Oct 6.1 18:00:05 10° WNW 18:03:07 15° NW 18:06:09 10° N visible
05 Oct 6.3 23:13:45 10° N 23:14:41 14° N 23:14:41 14° N visible
06 Oct 6.0 17:24:46 10° W 17:28:34 19° NW 17:32:23 10° N visible
06 Oct 6.3 22:39:54 10° N 22:40:48 13° N 22:40:48 13° N visible
